Time,TemperatureF,DewpointF,PressureIn,WindDirection,WindDirectionDegrees,WindSpeedMPH,WindSpeedGustMPH,Humidity,HourlyPrecipIn,Conditions,Clouds,dailyrainin,SoftwareType,DateUTC
2013-01-08 00:00:00,33.3,22.4,29.91,West,268,3.5,0.0,64,0.00,CLR,,0.00,WeatherDisplay:10.37,2013-01-08 05:00:00,
2013-01-08 00:03:00,33.1,22.2,29.91,West,268,3.5,0.0,64,0.00,CLR,,0.00,WeatherDisplay:10.37,2013-01-08 05:03:00,
2013-01-08 00:08:00,33.3,22.4,29.91,West,268,3.5,0.0,64,0.00,CLR,,0.00,WeatherDisplay:10.37,2013-01-08 05:08:00,
2013-01-08 00:13:00,33.1,22.2,29.91,West,268,3.5,3.5,64,0.00,CLR,,0.00,WeatherDisplay:10.37,2013-01-08 05:13:00,
2013-01-08 00:18:00,33.1,22.2,29.91,West,268,3.5,3.5,64,0.00,CLR,,0.00,WeatherDisplay:10.37,2013-01-08 05:18:00,
2013-01-08 00:23:00,33.4,22.6,29.91,West,275,3.5,4.0,64,0.00,CLR,,0.00,WeatherDisplay:10.37,2013-01-08 05:23:00,
2013-01-08 00:28:00,33.3,22.4,29.91,West,260,3.5,3.6,64,0.00,CLR,,0.00,WeatherDisplay:10.37,2013-01-08 05:28:00,
2013-01-08 00:33:00,33.3,22.4,29.91,West,260,3.5,3.6,64,0.00,CLR,,0.00,WeatherDisplay:10.37,2013-01-08 05:33:00,
2013-01-08 00:38:00,33.3,22.4,29.91,West,260,3.5,3.6,64,0.00,CLR,,0.00,WeatherDisplay:10.37,2013-01-08 05:38:00,
2013-01-08 00:43:00,33.3,22.4,29.91,West,273,2.3,2.7,64,0.00,CLR,,0.00,WeatherDisplay:10.37,2013-01-08 05:43:00,
2013-01-08 00:48:00,33.3,22.4,29.91,West,270,3.5,3.5,64,0.00,CLR,,0.00,WeatherDisplay:10.37,2013-01-08 05:48:00,
2013-01-08 00:53:00,33.3,22.4,29.91,West,270,3.5,3.5,64,0.00,CLR,,0.00,WeatherDisplay:10.37,2013-01-08 05:53:00,
2013-01-08 00:58:00,33.4,22.2,29.91,West,270,3.5,3.5,63,0.00,CLR,,0.00,WeatherDisplay:10.37,2013-01-08 05:58:00,
2013-01-08 01:03:00,33.4,22.2,29.91,West,270,3.5,3.5,63,0.00,CLR,,0.00,WeatherDisplay:10.37,2013-01-08 06:03:00,
2013-01-08 01:08:00,33.3,22.0,29.91,West,270,3.6,3.6,63,0.00,CLR,,0.00,WeatherDisplay:10.37,2013-01-08 06:08:00,
2013-01-08 01:13:00,33.6,22.4,29.91,West,270,3.5,3.5,63,0.00,CLR,,0.00,WeatherDisplay:10.37,2013-01-08 06:13:00,
2013-01-08 01:18:00,33.6,22.4,29.91,West,270,3.5,3.5,63,0.00,CLR,,0.00,WeatherDisplay:10.37,2013-01-08 06:18:00,
2013-01-08 01:24:00,33.4,22.2,29.91,West,270,3.5,3.5,63,0.00,CLR,,0.00,WeatherDisplay:10.37,2013-01-08 06:24:00,
2013-01-08 01:29:00,33.6,22.4,29.91,West,270,3.5,3.5,63,0.00,CLR,,0.00,WeatherDisplay:10.37,2013-01-08 06:29:00,
2013-01-08 01:34:00,33.6,22.0,29.91,West,270,3.5,3.5,62,0.00,CLR,,0.00,WeatherDisplay:10.37,2013-01-08 06:34:00,
2013-01-08 01:39:00,33.6,22.4,29.91,West,270,3.5,3.5,63,0.00,CLR,,0.00,WeatherDisplay:10.37,2013-01-08 06:39:00,
2013-01-08 01:44:00,33.4,22.2,29.91,WNW,290,3.5,3.5,63,0.00,CLR,,0.00,WeatherDisplay:10.37,2013-01-08 06:44:00,
2013-01-08 01:49:00,33.4,22.2,29.91,WNW,290,3.5,3.5,63,0.00,CLR,,0.00,WeatherDisplay:10.37,2013-01-08 06:49:00,
2013-01-08 01:54:00,33.4,22.2,29.91,WNW,290,3.5,3.5,63,0.00,CLR,,0.00,WeatherDisplay:10.37,2013-01-08 06:54:00,
2013-01-08 01:59:00,33.4,22.2,29.91,WNW,290,3.5,3.5,63,0.00,CLR,,0.00,WeatherDisplay:10.37,2013-01-08 06:59:00,
2013-01-08 02:04:00,33.4,22.2,29.91,WNW,290,3.5,3.5,63,0.00,CLR,,0.00,WeatherDisplay:10.37,2013-01-08 07:04:00,
2013-01-08 02:09:00,33.3,22.4,29.91,WNW,290,3.5,3.5,64,0.00,CLR,,0.00,WeatherDisplay:10.37,2013-01-08 07:09:00,
2013-01-08 02:14:00,33.3,22.4,29.91,WNW,290,3.5,3.5,64,0.00,CLR,,0.00,WeatherDisplay:10.37,2013-01-08 07:14:00,
2013-01-08 02:19:00,33.1,21.8,29.91,WNW,290,3.5,3.5,63,0.00,CLR,,0.00,WeatherDisplay:10.37,2013-01-08 07:19:00,
2013-01-08 02:24:00,32.9,22.0,29.91,WNW,290,3.5,3.5,64,0.00,CLR,,0.00,WeatherDisplay:10.37,2013-01-08 07:24:00,
2013-01-08 02:29:00,32.5,22.1,29.91,WNW,290,3.5,3.5,65,0.00,CLR,,0.00,WeatherDisplay:10.37,2013-01-08 07:29:00,
2013-01-08 02:34:00,32.5,22.1,29.91,WNW,290,3.5,3.5,65,0.00,CLR,,0.00,WeatherDisplay:10.37,2013-01-08 07:34:00,
2013-01-08 02:39:00,32.4,21.9,29.91,WNW,290,3.5,3.5,65,0.00,CLR,,0.00,WeatherDisplay:10.37,2013-01-08 07:39:00,
2013-01-08 02:44:00,32.0,21.6,29.91,WNW,290,3.5,3.5,65,0.00,CLR,,0.00,WeatherDisplay:10.37,2013-01-08 07:44:00,
2013-01-08 02:49:00,32.0,21.9,29.91,WNW,290,3.5,3.5,66,0.00,CLR,,0.00,WeatherDisplay:10.37,2013-01-08 07:49:00,
2013-01-08 02:54:00,31.8,21.7,29.91,WNW,290,3.5,3.5,66,0.00,CLR,,0.00,WeatherDisplay:10.37,2013-01-08 07:54:00,
2013-01-08 02:59:00,32.0,21.9,29.91,WNW,290,3.5,3.5,66,0.00,CLR,,0.00,WeatherDisplay:10.37,2013-01-08 07:59:00,
2013-01-08 03:04:00,32.2,21.7,29.91,WNW,290,3.5,3.5,65,0.00,CLR,,0.00,WeatherDisplay:10.37,2013-01-08 08:04:00,
2013-01-08 03:09:00,32.5,22.1,29.91,WNW,290,3.5,3.5,65,0.00,CLR,,0.00,WeatherDisplay:10.37,2013-01-08 08:09:00,
2013-01-08 03:14:00,32.7,21.9,29.91,WNW,290,3.5,3.5,64,0.00,CLR,,0.00,WeatherDisplay:10.37,2013-01-08 08:14:00,
2013-01-08 03:19:00,33.1,22.2,29.91,WNW,290,3.5,3.5,64,0.00,CLR,,0.00,WeatherDisplay:10.37,2013-01-08 08:19:00,
2013-01-08 03:24:00,33.6,22.4,29.91,WNW,290,3.5,3.5,63,0.00,CLR,,0.00,WeatherDisplay:10.37,2013-01-08 08:24:00,
2013-01-08 03:29:00,34.0,22.3,29.91,WNW,290,3.5,3.5,62,0.00,CLR,,0.00,WeatherDisplay:10.37,2013-01-08 08:29:00,
2013-01-08 03:34:00,33.8,22.1,29.91,WNW,290,3.5,3.5,62,0.00,CLR,,0.00,WeatherDisplay:10.37,2013-01-08 08:34:00,
2013-01-08 03:39:00,34.0,22.3,29.91,WNW,290,3.5,3.5,62,0.00,CLR,,0.00,WeatherDisplay:10.37,2013-01-08 08:39:00,
2013-01-08 03:44:00,34.2,22.5,29.91,WNW,290,3.5,3.5,62,0.00,CLR,,0.00,WeatherDisplay:10.37,2013-01-08 08:44:00,
2013-01-08 03:49:00,34.2,22.5,29.91,WNW,290,3.5,3.5,62,0.00,CLR,,0.00,WeatherDisplay:10.37,2013-01-08 08:49:00,
2013-01-08 03:54:00,34.2,22.5,29.91,WNW,290,3.5,3.5,62,0.00,CLR,,0.00,WeatherDisplay:10.37,2013-01-08 08:54:00,
2013-01-08 03:59:00,34.2,22.5,29.91,WNW,290,3.5,3.5,62,0.00,CLR,,0.00,WeatherDisplay:10.37,2013-01-08 08:59:00,
2013-01-08 04:04:00,34.2,22.5,29.91,WNW,290,3.5,3.5,62,0.00,CLR,,0.00,WeatherDisplay:10.37,2013-01-08 09:04:00,
2013-01-08 04:09:00,34.0,22.7,29.91,WNW,290,3.5,3.5,63,0.00,CLR,,0.00,WeatherDisplay:10.37,2013-01-08 09:09:00,
2013-01-08 04:14:00,33.8,22.5,29.91,WNW,290,3.5,3.5,63,0.00,CLR,,0.00,WeatherDisplay:10.37,2013-01-08 09:14:00,
2013-01-08 04:19:00,33.8,22.5,29.91,WNW,290,3.5,3.5,63,0.00,CLR,,0.00,WeatherDisplay:10.37,2013-01-08 09:19:00,
2013-01-08 04:24:00,33.8,22.5,29.91,WNW,290,3.5,3.5,63,0.00,CLR,,0.00,WeatherDisplay:10.37,2013-01-08 09:24:00,
2013-01-08 04:29:00,34.2,22.9,29.91,WNW,290,3.5,3.5,63,0.00,CLR,,0.00,WeatherDisplay:10.37,2013-01-08 09:29:00,
2013-01-08 04:34:00,34.0,22.7,29.91,WNW,290,3.5,3.5,63,0.00,CLR,,0.00,WeatherDisplay:10.37,2013-01-08 09:34:00,
2013-01-08 04:39:00,34.0,22.7,29.91,West,276,3.5,3.5,63,0.00,CLR,,0.00,WeatherDisplay:10.37,2013-01-08 09:39:00,
2013-01-08 04:44:00,34.0,23.1,29.91,West,276,3.5,3.5,64,0.00,CLR,,0.00,WeatherDisplay:10.37,2013-01-08 09:44:00,
2013-01-08 04:49:00,34.0,22.7,29.91,West,276,3.5,3.5,63,0.00,CLR,,0.00,WeatherDisplay:10.37,2013-01-08 09:49:00,
2013-01-08 04:54:00,34.2,22.9,29.91,West,276,3.5,3.5,63,0.00,CLR,,0.00,WeatherDisplay:10.37,2013-01-08 09:54:00,
2013-01-08 04:59:00,34.0,22.7,29.91,West,276,3.5,3.5,63,0.00,CLR,,0.00,WeatherDisplay:10.37,2013-01-08 09:59:00,
2013-01-08 05:04:00,34.0,23.1,29.91,West,276,3.5,3.5,64,0.00,CLR,,0.00,WeatherDisplay:10.37,2013-01-08 10:04:00,
2013-01-08 05:09:00,34.0,23.1,29.91,West,276,3.5,3.5,64,0.00,CLR,,0.00,WeatherDisplay:10.37,2013-01-08 10:09:00,
2013-01-08 05:14:00,34.0,23.1,29.91,West,276,3.5,3.5,64,0.00,CLR,,0.00,WeatherDisplay:10.37,2013-01-08 10:14:00,
2013-01-08 05:19:00,34.2,23.2,29.91,West,276,3.5,3.5,64,0.00,CLR,,0.00,WeatherDisplay:10.37,2013-01-08 10:19:00,
2013-01-08 05:24:00,34.3,23.0,29.91,WNW,299,3.5,3.5,63,0.00,CLR,,0.00,WeatherDisplay:10.37,2013-01-08 10:24:00,
2013-01-08 05:29:00,34.5,23.2,29.91,WNW,299,3.5,3.5,63,0.00,CLR,,0.00,WeatherDisplay:10.37,2013-01-08 10:29:00,
2013-01-08 05:34:00,34.5,23.2,29.91,WNW,299,3.5,3.5,63,0.00,CLR,,0.00,WeatherDisplay:10.37,2013-01-08 10:34:00,
2013-01-08 05:39:00,34.9,23.6,29.91,WNW,299,3.5,3.5,63,0.00,CLR,,0.00,WeatherDisplay:10.37,2013-01-08 10:39:00,
2013-01-08 05:44:00,34.9,23.6,29.91,WNW,299,3.5,3.5,63,0.00,CLR,,0.00,WeatherDisplay:10.37,2013-01-08 10:44:00,
2013-01-08 05:49:00,34.9,23.6,29.91,WNW,299,3.5,3.5,63,0.00,CLR,,0.00,WeatherDisplay:10.37,2013-01-08 10:49:00,
2013-01-08 05:54:00,34.7,23.4,29.91,WNW,299,3.5,3.5,63,0.00,CLR,,0.00,WeatherDisplay:10.37,2013-01-08 10:54:00,
2013-01-08 05:59:00,34.5,23.2,29.91,WNW,299,3.5,3.5,63,0.00,CLR,,0.00,WeatherDisplay:10.37,2013-01-08 10:59:00,
2013-01-08 06:04:00,34.7,23.4,29.91,WNW,299,3.5,3.5,63,0.00,CLR,,0.00,WeatherDisplay:10.37,2013-01-08 11:04:00,
2013-01-08 06:09:00,34.7,23.4,29.91,WNW,299,3.5,3.5,63,0.00,CLR,,0.00,WeatherDisplay:10.37,2013-01-08 11:09:00,
2013-01-08 06:14:00,34.5,23.6,29.91,WNW,299,3.5,3.5,64,0.00,CLR,,0.00,WeatherDisplay:10.37,2013-01-08 11:14:00,
2013-01-08 06:19:00,34.7,23.8,29.91,WNW,299,3.5,3.5,64,0.00,CLR,,0.00,WeatherDisplay:10.37,2013-01-08 11:19:00,
2013-01-08 06:24:00,34.5,24.0,29.91,WNW,299,3.5,3.5,65,0.00,CLR,,0.00,WeatherDisplay:10.37,2013-01-08 11:24:00,
2013-01-08 06:29:00,34.5,24.0,29.91,WNW,299,3.5,3.5,65,0.00,CLR,,0.00,WeatherDisplay:10.37,2013-01-08 11:29:00,
2013-01-08 06:34:00,34.5,23.6,29.91,WNW,299,3.5,3.5,64,0.00,CLR,,0.00,WeatherDisplay:10.37,2013-01-08 11:34:00,
2013-01-08 06:39:00,34.3,23.8,29.91,WNW,299,3.5,3.5,65,0.00,CLR,,0.00,WeatherDisplay:10.37,2013-01-08 11:39:00,
2013-01-08 06:44:00,34.5,24.0,29.91,WNW,299,3.5,3.5,65,0.00,CLR,,0.00,WeatherDisplay:10.37,2013-01-08 11:44:00,
2013-01-08 06:49:00,34.3,23.8,29.91,WNW,299,3.5,3.5,65,0.00,CLR,,0.00,WeatherDisplay:10.37,2013-01-08 11:49:00,
2013-01-08 06:54:00,34.2,23.6,29.91,WNW,299,3.5,3.5,65,0.00,CLR,,0.00,WeatherDisplay:10.37,2013-01-08 11:54:00,
2013-01-08 06:59:00,34.2,23.6,29.91,WNW,299,3.5,3.5,65,0.00,CLR,,0.00,WeatherDisplay:10.37,2013-01-08 11:59:00,
2013-01-08 07:04:00,34.2,24.0,29.91,WNW,299,3.5,3.5,66,0.00,CLR,,0.00,WeatherDisplay:10.37,2013-01-08 12:04:00,
2013-01-08 07:09:00,34.2,24.0,29.91,WNW,299,3.5,3.5,66,0.00,CLR,,0.00,WeatherDisplay:10.37,2013-01-08 12:09:00,
2013-01-08 07:14:00,34.2,24.0,29.91,WNW,299,3.5,3.5,66,0.00,CLR,,0.00,WeatherDisplay:10.37,2013-01-08 12:14:00,
2013-01-08 07:19:00,34.3,24.2,29.91,WNW,299,3.5,3.5,66,0.00,CLR,,0.00,WeatherDisplay:10.37,2013-01-08 12:19:00,
2013-01-08 07:24:00,34.2,24.0,29.91,WNW,299,3.5,3.5,66,0.00,CLR,,0.00,WeatherDisplay:10.37,2013-01-08 12:24:00,
2013-01-08 07:29:00,34.2,24.3,29.91,WNW,299,3.5,3.5,67,0.00,CLR,,0.00,WeatherDisplay:10.37,2013-01-08 12:29:00,
2013-01-08 07:34:00,34.2,24.3,29.91,WNW,299,3.5,3.5,67,0.00,CLR,,0.00,WeatherDisplay:10.37,2013-01-08 12:34:00,
2013-01-08 07:39:00,34.2,24.7,29.91,WNW,299,3.5,3.5,68,0.00,CLR,,0.00,WeatherDisplay:10.37,2013-01-08 12:39:00,
2013-01-08 07:44:00,34.2,24.7,29.91,WNW,299,3.5,3.5,68,0.00,CLR,,0.00,WeatherDisplay:10.37,2013-01-08 12:44:00,
2013-01-08 07:49:00,34.2,24.7,29.91,WNW,299,3.5,3.5,68,0.00,CLR,,0.00,WeatherDisplay:10.37,2013-01-08 12:49:00,
2013-01-08 07:54:00,34.0,24.9,29.91,WNW,299,3.5,3.5,69,0.00,CLR,,0.00,WeatherDisplay:10.37,2013-01-08 12:54:00,
2013-01-08 07:59:00,33.8,25.0,29.91,WNW,299,3.5,3.5,70,0.00,CLR,,0.00,WeatherDisplay:10.37,2013-01-08 12:59:00,
2013-01-08 08:04:00,34.0,25.9,29.91,WNW,299,3.5,3.5,72,0.00,CLR,,0.00,WeatherDisplay:10.37,2013-01-08 13:04:00,
2013-01-08 08:09:00,34.0,25.6,29.91,WNW,299,3.5,3.5,71,0.00,CLR,,0.00,WeatherDisplay:10.37,2013-01-08 13:09:00,
2013-01-08 08:14:00,34.2,25.0,29.91,WNW,299,3.5,3.5,69,0.00,CLR,,0.00,WeatherDisplay:10.37,2013-01-08 13:14:00,
2013-01-08 08:20:00,34.5,25.7,29.91,WNW,299,3.6,3.6,70,0.00,CLR,,0.00,WeatherDisplay:10.37,2013-01-08 13:20:00,
2013-01-08 08:25:00,34.7,25.6,29.91,WNW,299,3.5,3.5,69,0.00,CLR,,0.00,WeatherDisplay:10.37,2013-01-08 13:25:00,
2013-01-08 08:30:00,34.7,25.6,29.91,WNW,299,3.5,3.5,69,0.00,CLR,,0.00,WeatherDisplay:10.37,2013-01-08 13:30:00,
2013-01-08 08:35:00,34.9,25.7,29.91,WNW,299,3.5,3.5,69,0.00,CLR,,0.00,WeatherDisplay:10.37,2013-01-08 13:35:00,
2013-01-08 08:40:00,34.9,25.7,29.91,WNW,299,3.5,3.5,69,0.00,CLR,,0.00,WeatherDisplay:10.37,2013-01-08 13:40:00,
2013-01-08 08:45:00,35.1,26.3,29.91,WNW,299,3.5,3.5,70,0.00,CLR,,0.00,WeatherDisplay:10.37,2013-01-08 13:45:00,
2013-01-08 08:50:00,35.2,25.7,29.91,WNW,299,3.5,3.5,68,0.00,CLR,,0.00,WeatherDisplay:10.37,2013-01-08 13:50:00,
2013-01-08 08:55:00,35.2,25.7,29.91,WNW,299,3.5,3.5,68,0.00,CLR,,0.00,WeatherDisplay:10.37,2013-01-08 13:55:00,
2013-01-08 09:00:00,35.4,26.3,29.91,WNW,299,3.5,3.5,69,0.00,CLR,,0.00,WeatherDisplay:10.37,2013-01-08 14:00:00,
2013-01-08 09:05:00,35.8,26.2,29.91,WNW,299,3.5,3.5,68,0.00,CLR,,0.00,WeatherDisplay:10.37,2013-01-08 14:05:00,
2013-01-08 09:10:00,36.1,26.6,29.91,WNW,299,3.5,3.5,68,0.00,CLR,,0.00,WeatherDisplay:10.37,2013-01-08 14:10:00,
2013-01-08 09:15:00,36.5,26.6,29.91,WNW,299,3.5,3.5,67,0.00,CLR,,0.00,WeatherDisplay:10.37,2013-01-08 14:15:00,
2013-01-08 09:20:00,36.7,26.4,29.91,WNW,299,3.5,3.5,66,0.00,CLR,,0.00,WeatherDisplay:10.37,2013-01-08 14:20:00,
2013-01-08 09:25:00,37.0,26.0,29.91,WNW,299,3.5,3.5,64,0.00,CLR,,0.00,WeatherDisplay:10.37,2013-01-08 14:25:00,
2013-01-08 09:30:00,37.4,26.3,29.91,WNW,299,3.5,3.5,64,0.00,CLR,,0.00,WeatherDisplay:10.37,2013-01-08 14:30:00,
2013-01-08 09:35:00,37.4,26.3,29.91,WNW,299,3.5,3.5,64,0.00,CLR,,0.00,WeatherDisplay:10.37,2013-01-08 14:35:00,
2013-01-08 09:40:00,37.6,26.1,29.91,WNW,299,3.6,3.6,63,0.00,CLR,,0.00,WeatherDisplay:10.37,2013-01-08 14:40:00,
2013-01-08 09:45:00,37.8,26.3,29.91,WNW,299,3.6,3.6,63,0.00,CLR,,0.00,WeatherDisplay:10.37,2013-01-08 14:45:00,
2013-01-08 09:50:00,37.9,26.1,29.91,WNW,299,3.6,3.6,62,0.00,CLR,,0.00,WeatherDisplay:10.37,2013-01-08 14:50:00,
2013-01-08 09:55:00,38.1,26.2,29.91,WNW,299,3.6,3.6,62,0.00,CLR,,0.00,WeatherDisplay:10.37,2013-01-08 14:55:00,
2013-01-08 10:00:00,37.9,26.1,29.91,WNW,299,3.6,3.6,62,0.00,CLR,,0.00,WeatherDisplay:10.37,2013-01-08 15:00:00,
2013-01-08 10:05:00,37.9,26.1,29.91,WNW,299,3.6,3.6,62,0.00,CLR,,0.00,WeatherDisplay:10.37,2013-01-08 15:05:00,
2013-01-08 10:10:00,37.9,26.5,29.91,WNW,299,3.5,3.5,63,0.00,CLR,,0.00,WeatherDisplay:10.37,2013-01-08 15:10:00,
2013-01-08 10:15:00,38.1,26.6,29.91,WNW,299,3.5,3.5,63,0.00,CLR,,0.00,WeatherDisplay:10.37,2013-01-08 15:15:00,
2013-01-08 10:20:00,38.3,26.4,29.91,WNW,299,3.5,3.5,62,0.00,CLR,,0.00,WeatherDisplay:10.37,2013-01-08 15:20:00,
2013-01-08 10:25:00,38.3,26.4,29.91,WNW,299,3.5,3.5,62,0.00,CLR,,0.00,WeatherDisplay:10.37,2013-01-08 15:25:00,
2013-01-08 10:30:00,38.5,26.6,29.91,WNW,299,3.5,3.5,62,0.00,CLR,,0.00,WeatherDisplay:10.37,2013-01-08 15:30:00,
2013-01-08 10:35:00,38.7,26.8,29.91,WNW,299,3.5,3.5,62,0.00,CLR,,0.00,WeatherDisplay:10.37,2013-01-08 15:35:00,
2013-01-08 10:40:00,38.8,26.5,29.91,WNW,299,3.5,3.5,61,0.00,CLR,,0.00,WeatherDisplay:10.37,2013-01-08 15:40:00,
2013-01-08 10:45:00,38.7,26.8,29.91,WNW,299,3.5,3.5,62,0.00,CLR,,0.00,WeatherDisplay:10.37,2013-01-08 15:45:00,
2013-01-08 10:50:00,38.7,26.8,29.91,WNW,299,3.5,3.5,62,0.00,CLR,,0.00,WeatherDisplay:10.37,2013-01-08 15:50:00,
2013-01-08 10:55:00,38.5,26.6,29.91,WNW,299,3.5,3.5,62,0.00,CLR,,0.00,WeatherDisplay:10.37,2013-01-08 15:55:00,
2013-01-08 11:00:00,38.3,26.4,29.91,WNW,299,3.5,3.5,62,0.00,CLR,,0.00,WeatherDisplay:10.37,2013-01-08 16:00:00,
2013-01-08 11:05:00,38.3,26.8,29.91,WNW,299,3.5,3.5,63,0.00,CLR,,0.00,WeatherDisplay:10.37,2013-01-08 16:05:00,
2013-01-08 11:10:00,38.3,26.4,29.91,WNW,299,3.5,3.5,62,0.00,CLR,,0.00,WeatherDisplay:10.37,2013-01-08 16:10:00,
2013-01-08 11:15:00,38.3,26.8,29.91,WNW,299,3.5,3.5,63,0.00,CLR,,0.00,WeatherDisplay:10.37,2013-01-08 16:15:00,
2013-01-08 11:20:00,38.3,26.8,29.91,WNW,299,3.5,3.5,63,0.00,CLR,,0.00,WeatherDisplay:10.37,2013-01-08 16:20:00,
2013-01-08 11:25:00,38.3,26.8,29.91,WNW,299,3.5,3.5,63,0.00,CLR,,0.00,WeatherDisplay:10.37,2013-01-08 16:25:00,
2013-01-08 11:30:00,38.3,26.8,29.91,WNW,299,3.5,3.5,63,0.00,CLR,,0.00,WeatherDisplay:10.37,2013-01-08 16:30:00,
2013-01-08 11:35:00,38.5,26.6,29.91,WNW,299,3.5,3.5,62,0.00,CLR,,0.00,WeatherDisplay:10.37,2013-01-08 16:35:00,
2013-01-08 11:40:00,38.3,26.8,29.91,WNW,299,3.5,3.5,63,0.00,CLR,,0.00,WeatherDisplay:10.37,2013-01-08 16:40:00,
2013-01-08 11:45:00,38.3,26.8,29.91,WNW,299,3.5,3.5,63,0.00,CLR,,0.00,WeatherDisplay:10.37,2013-01-08 16:45:00,
2013-01-08 11:50:00,38.5,27.0,29.91,WNW,299,3.5,3.5,63,0.00,CLR,,0.00,WeatherDisplay:10.37,2013-01-08 16:50:00,
2013-01-08 11:55:00,38.5,27.0,29.91,WNW,299,3.5,3.5,63,0.00,CLR,,0.00,WeatherDisplay:10.37,2013-01-08 16:55:00,
2013-01-08 12:00:00,38.7,27.1,29.91,WNW,299,3.5,3.5,63,0.00,CLR,,0.00,WeatherDisplay:10.37,2013-01-08 17:00:00,
2013-01-08 12:05:00,38.8,26.9,29.91,WNW,299,3.5,3.5,62,0.00,CLR,,0.00,WeatherDisplay:10.37,2013-01-08 17:05:00,
2013-01-08 12:10:00,39.0,27.1,29.91,WNW,299,3.5,3.5,62,0.00,CLR,,0.00,WeatherDisplay:10.37,2013-01-08 17:10:00,
2013-01-08 12:15:00,39.4,27.0,29.91,WNW,289,4.6,4.6,61,0.00,CLR,,0.00,WeatherDisplay:10.37,2013-01-08 17:15:00,
2013-01-08 12:20:00,39.6,27.2,29.91,WNW,286,4.6,0.0,61,0.00,CLR,,0.00,WeatherDisplay:10.37,2013-01-08 17:20:00,
2013-01-08 12:25:00,39.6,27.2,29.91,WNW,286,0.0,0.0,61,0.00,CLR,,0.00,WeatherDisplay:10.37,2013-01-08 17:25:00,
2013-01-08 12:30:00,39.7,27.4,29.91,WNW,286,0.0,0.0,61,0.00,CLR,,0.00,WeatherDisplay:10.37,2013-01-08 17:30:00,
2013-01-08 12:35:00,39.4,27.0,29.91,WNW,286,0.0,0.0,61,0.00,CLR,,0.00,WeatherDisplay:10.37,2013-01-08 17:35:00,
2013-01-08 12:40:00,39.0,27.1,29.91,WNW,286,0.0,0.0,62,0.00,CLR,,0.00,WeatherDisplay:10.37,2013-01-08 17:40:00,
2013-01-08 12:45:00,39.2,26.9,29.91,WNW,286,0.0,0.0,61,0.00,CLR,,0.00,WeatherDisplay:10.37,2013-01-08 17:45:00,
2013-01-08 12:50:00,39.6,27.2,29.91,WNW,286,0.0,0.0,61,0.00,CLR,,0.00,WeatherDisplay:10.37,2013-01-08 17:50:00,
2013-01-08 12:55:00,39.7,27.4,29.91,NW,312,4.6,4.6,61,0.00,CLR,,0.00,WeatherDisplay:10.37,2013-01-08 17:55:00,
2013-01-08 13:00:00,39.4,27.0,29.91,NW,312,4.6,4.6,61,0.00,CLR,,0.00,WeatherDisplay:10.37,2013-01-08 18:00:00,
2013-01-08 13:05:00,39.4,27.0,29.91,WNW,288,3.5,3.5,61,0.00,CLR,,0.00,WeatherDisplay:10.37,2013-01-08 18:05:00,
2013-01-08 13:10:00,39.4,27.0,29.91,WNW,288,3.5,3.5,61,0.00,CLR,,0.00,WeatherDisplay:10.37,2013-01-08 18:10:00,
2013-01-08 13:15:00,39.2,26.9,29.91,West,275,3.5,3.5,61,0.00,CLR,,0.00,WeatherDisplay:10.37,2013-01-08 18:15:00,
2013-01-08 13:20:00,39.2,27.3,29.91,West,275,3.5,3.5,62,0.00,CLR,,0.00,WeatherDisplay:10.37,2013-01-08 18:20:00,
2013-01-08 13:25:00,39.0,26.7,29.91,West,275,3.5,3.5,61,0.00,CLR,,0.00,WeatherDisplay:10.37,2013-01-08 18:25:00,
2013-01-08 13:30:00,39.2,27.3,29.91,West,275,3.5,3.5,62,0.00,CLR,,0.00,WeatherDisplay:10.37,2013-01-08 18:30:00,
2013-01-08 13:35:00,39.2,27.3,29.91,West,275,3.5,3.5,62,0.00,CLR,,0.00,WeatherDisplay:10.37,2013-01-08 18:35:00,
2013-01-08 13:40:00,39.6,27.2,29.91,West,275,3.5,3.5,61,0.00,CLR,,0.00,WeatherDisplay:10.37,2013-01-08 18:40:00,
2013-01-08 13:45:00,39.7,27.4,29.91,West,275,3.5,3.5,61,0.00,CLR,,0.00,WeatherDisplay:10.37,2013-01-08 18:45:00,
2013-01-08 13:50:00,39.6,27.2,29.91,West,275,3.5,3.5,61,0.00,CLR,,0.00,WeatherDisplay:10.37,2013-01-08 18:50:00,
2013-01-08 13:55:00,39.4,27.4,29.91,West,275,3.5,3.5,62,0.00,CLR,,0.00,WeatherDisplay:10.37,2013-01-08 18:55:00,
2013-01-08 14:00:00,39.2,27.3,29.91,West,275,3.5,3.5,62,0.00,CLR,,0.00,WeatherDisplay:10.37,2013-01-08 19:00:00,
2013-01-08 14:05:00,38.8,26.9,29.91,West,275,3.5,3.5,62,0.00,CLR,,0.00,WeatherDisplay:10.37,2013-01-08 19:05:00,
2013-01-08 14:10:00,38.8,27.3,29.91,West,268,3.5,3.5,63,0.00,CLR,,0.00,WeatherDisplay:10.37,2013-01-08 19:10:00,
2013-01-08 14:15:00,38.7,27.1,29.91,WNW,286,4.0,4.0,63,0.00,CLR,,0.00,WeatherDisplay:10.37,2013-01-08 19:15:00,
2013-01-08 14:20:00,38.8,27.3,29.91,WNW,286,3.5,3.5,63,0.00,CLR,,0.00,WeatherDisplay:10.37,2013-01-08 19:20:00,
2013-01-08 14:25:00,39.2,27.3,29.91,WNW,286,3.5,3.5,62,0.00,CLR,,0.00,WeatherDisplay:10.37,2013-01-08 19:25:00,
2013-01-08 14:30:00,39.6,27.2,29.91,West,272,2.3,3.1,61,0.00,CLR,,0.00,WeatherDisplay:10.37,2013-01-08 19:30:00,
2013-01-08 14:35:00,39.4,27.0,29.91,West,278,3.5,3.5,61,0.00,CLR,,0.00,WeatherDisplay:10.37,2013-01-08 19:35:00,
2013-01-08 14:40:00,38.8,26.9,29.91,West,278,3.5,3.5,62,0.00,CLR,,0.00,WeatherDisplay:10.37,2013-01-08 19:40:00,
2013-01-08 14:45:00,38.5,27.0,29.91,West,278,3.5,3.5,63,0.00,CLR,,0.00,WeatherDisplay:10.37,2013-01-08 19:45:00,
2013-01-08 14:50:00,38.5,27.4,29.91,West,278,3.5,3.5,64,0.00,CLR,,0.00,WeatherDisplay:10.37,2013-01-08 19:50:00,
2013-01-08 14:55:00,38.3,27.2,29.91,WNW,286,3.5,3.5,64,0.00,CLR,,0.00,WeatherDisplay:10.37,2013-01-08 19:55:00,
2013-01-08 15:00:00,38.1,27.0,29.91,WNW,286,3.5,3.5,64,0.00,CLR,,0.00,WeatherDisplay:10.37,2013-01-08 20:00:00,
2013-01-08 15:05:00,38.1,27.0,29.91,West,273,2.3,0.0,64,0.00,CLR,,0.00,WeatherDisplay:10.37,2013-01-08 20:05:00,
2013-01-08 15:10:00,37.9,27.2,29.91,West,273,2.3,0.0,65,0.00,CLR,,0.00,WeatherDisplay:10.37,2013-01-08 20:10:00,
2013-01-08 15:16:00,37.8,27.0,29.91,West,273,2.3,0.0,65,0.00,CLR,,0.00,WeatherDisplay:10.37,2013-01-08 20:16:00,
2013-01-08 15:21:00,37.8,27.0,29.91,West,273,2.3,0.0,65,0.00,CLR,,0.00,WeatherDisplay:10.37,2013-01-08 20:21:00,
2013-01-08 15:26:00,37.9,26.8,29.91,West,276,3.5,3.5,64,0.00,CLR,,0.00,WeatherDisplay:10.37,2013-01-08 20:26:00,
2013-01-08 15:31:00,37.9,26.8,29.91,West,276,2.7,2.7,64,0.00,CLR,,0.00,WeatherDisplay:10.37,2013-01-08 20:31:00,
2013-01-08 15:36:00,38.1,27.0,29.91,WNW,285,2.3,0.0,64,0.00,CLR,,0.00,WeatherDisplay:10.37,2013-01-08 20:36:00,
2013-01-08 15:41:00,38.1,27.0,29.91,WSW,251,0.0,0.0,64,0.00,CLR,,0.00,WeatherDisplay:10.37,2013-01-08 20:41:00,
2013-01-08 15:46:00,38.1,27.0,29.91,NW,316,0.0,0.0,64,0.00,CLR,,0.00,WeatherDisplay:10.37,2013-01-08 20:46:00,
2013-01-08 15:51:00,37.9,26.8,29.91,NW,316,0.0,0.0,64,0.00,CLR,,0.00,WeatherDisplay:10.37,2013-01-08 20:51:00,
2013-01-08 15:56:00,37.8,26.7,29.91,NW,316,0.0,0.0,64,0.00,CLR,,0.00,WeatherDisplay:10.37,2013-01-08 20:56:00,
2013-01-08 16:01:00,37.8,27.0,29.91,NW,316,0.0,0.0,65,0.00,CLR,,0.00,WeatherDisplay:10.37,2013-01-08 21:01:00,
2013-01-08 16:06:00,37.8,27.4,29.91,NW,316,0.0,0.0,66,0.00,CLR,,0.00,WeatherDisplay:10.37,2013-01-08 21:06:00,
2013-01-08 16:11:00,37.4,27.1,29.91,WNW,292,0.0,0.0,66,0.00,CLR,,0.00,WeatherDisplay:10.37,2013-01-08 21:11:00,
2013-01-08 16:16:00,37.2,27.3,29.91,WNW,292,0.0,0.0,67,0.00,CLR,,0.00,WeatherDisplay:10.37,2013-01-08 21:16:00,
2013-01-08 16:21:00,36.9,28.3,29.91,WNW,292,0.0,0.0,71,0.00,CLR,,0.00,WeatherDisplay:10.37,2013-01-08 21:21:00,
2013-01-08 16:26:00,36.7,28.5,29.91,WNW,292,0.0,0.0,72,0.00,CLR,,0.00,WeatherDisplay:10.37,2013-01-08 21:26:00,
2013-01-08 16:31:00,36.5,28.3,29.91,WNW,292,0.0,0.0,72,0.00,CLR,,0.00,WeatherDisplay:10.37,2013-01-08 21:31:00,
2013-01-08 16:36:00,36.1,28.0,29.91,WNW,292,0.0,0.0,72,0.00,CLR,,0.00,WeatherDisplay:10.37,2013-01-08 21:36:00,
2013-01-08 16:41:00,35.8,27.6,29.91,WNW,292,0.0,0.0,72,0.00,CLR,,0.00,WeatherDisplay:10.37,2013-01-08 21:41:00,
2013-01-08 16:46:00,35.4,27.3,29.91,WNW,292,0.0,0.0,72,0.00,CLR,,0.00,WeatherDisplay:10.37,2013-01-08 21:46:00,
2013-01-08 16:51:00,35.2,27.8,29.91,WNW,292,0.0,0.0,74,0.00,CLR,,0.00,WeatherDisplay:10.37,2013-01-08 21:51:00,
2013-01-08 16:56:00,35.1,27.9,29.91,WNW,292,0.0,0.0,75,0.00,CLR,,0.00,WeatherDisplay:10.37,2013-01-08 21:56:00,
2013-01-08 17:01:00,34.7,27.9,29.91,WNW,292,0.0,0.0,76,0.00,CLR,,0.00,WeatherDisplay:10.37,2013-01-08 22:01:00,
2013-01-08 17:06:00,34.2,27.1,29.91,WNW,292,0.0,0.0,75,0.00,CLR,,0.00,WeatherDisplay:10.37,2013-01-08 22:06:00,
2013-01-08 17:11:00,34.0,26.6,29.91,WNW,292,0.0,0.0,74,0.00,CLR,,0.00,WeatherDisplay:10.37,2013-01-08 22:11:00,
2013-01-08 17:16:00,33.4,26.0,29.91,WNW,292,0.0,0.0,74,0.00,CLR,,0.00,WeatherDisplay:10.37,2013-01-08 22:16:00,
2013-01-08 17:21:00,33.4,26.7,29.91,WNW,292,0.0,0.0,76,0.00,CLR,,0.00,WeatherDisplay:10.37,2013-01-08 22:21:00,
2013-01-08 17:26:00,33.3,27.8,29.91,WNW,292,0.0,0.0,80,0.00,CLR,,0.00,WeatherDisplay:10.37,2013-01-08 22:26:00,
2013-01-08 17:31:00,32.9,27.4,29.91,WNW,292,0.0,0.0,80,0.00,CLR,,0.00,WeatherDisplay:10.37,2013-01-08 22:31:00,
2013-01-08 17:36:00,32.5,27.7,29.91,WNW,292,0.0,0.0,82,0.00,CLR,,0.00,WeatherDisplay:10.37,2013-01-08 22:36:00,
2013-01-08 17:41:00,32.4,27.8,29.91,WNW,292,0.0,0.0,83,0.00,CLR,,0.00,WeatherDisplay:10.37,2013-01-08 22:41:00,
2013-01-08 17:46:00,31.8,27.2,29.91,WNW,292,0.0,0.0,83,0.00,CLR,,0.00,WeatherDisplay:10.37,2013-01-08 22:46:00,
2013-01-08 17:51:00,31.6,27.1,29.91,WNW,292,0.0,0.0,83,0.00,CLR,,0.00,WeatherDisplay:10.37,2013-01-08 22:51:00,
2013-01-08 17:56:00,31.5,26.6,29.91,WNW,292,0.0,0.0,82,0.00,CLR,,0.00,WeatherDisplay:10.37,2013-01-08 22:56:00,
2013-01-08 18:01:00,31.1,26.0,29.91,WNW,292,0.0,0.0,81,0.00,CLR,,0.00,WeatherDisplay:10.37,2013-01-08 23:01:00,
2013-01-08 18:06:00,30.9,25.8,29.91,WNW,292,0.0,0.0,81,0.00,CLR,,0.00,WeatherDisplay:10.37,2013-01-08 23:06:00,
2013-01-08 18:11:00,30.9,26.1,29.91,WNW,292,0.0,0.0,82,0.00,CLR,,0.00,WeatherDisplay:10.37,2013-01-08 23:11:00,
2013-01-08 18:16:00,30.7,26.5,29.91,WNW,292,0.0,0.0,84,0.00,CLR,,0.00,WeatherDisplay:10.37,2013-01-08 23:16:00,
2013-01-08 18:21:00,30.6,26.6,29.91,WNW,292,0.0,0.0,85,0.00,CLR,,0.00,WeatherDisplay:10.37,2013-01-08 23:21:00,
2013-01-08 18:26:00,30.6,26.9,29.91,WNW,292,0.0,0.0,86,0.00,CLR,,0.00,WeatherDisplay:10.37,2013-01-08 23:26:00,
2013-01-08 18:31:00,30.4,26.7,29.91,WNW,292,0.0,0.0,86,0.00,CLR,,0.00,WeatherDisplay:10.37,2013-01-08 23:31:00,
2013-01-08 18:36:00,30.2,26.8,29.91,WNW,292,0.0,0.0,87,0.00,CLR,,0.00,WeatherDisplay:10.37,2013-01-08 23:36:00,
2013-01-08 18:41:00,30.0,26.6,29.91,WNW,292,0.0,0.0,87,0.00,CLR,,0.00,WeatherDisplay:10.37,2013-01-08 23:41:00,
2013-01-08 18:46:00,30.0,27.2,29.91,WNW,292,0.0,0.0,89,0.00,CLR,,0.00,WeatherDisplay:10.37,2013-01-08 23:46:00,
2013-01-08 18:51:00,30.0,27.4,29.91,WNW,292,0.0,0.0,90,0.00,CLR,,0.00,WeatherDisplay:10.37,2013-01-08 23:51:00,
2013-01-08 18:56:00,30.0,28.0,29.91,WNW,292,0.0,0.0,92,0.00,CLR,,0.00,WeatherDisplay:10.37,2013-01-08 23:56:00,
2013-01-08 19:01:00,29.8,28.3,29.91,WNW,292,0.0,0.0,94,0.00,CLR,,0.00,WeatherDisplay:10.37,2013-01-09 00:01:00,
2013-01-08 19:06:00,29.8,28.3,29.91,WNW,292,0.0,0.0,94,0.00,CLR,,0.00,WeatherDisplay:10.37,2013-01-09 00:06:00,
2013-01-08 19:11:00,29.8,28.3,29.91,WNW,292,0.0,0.0,94,0.00,CLR,,0.00,WeatherDisplay:10.37,2013-01-09 00:11:00,
2013-01-08 19:16:00,29.7,28.1,29.91,WNW,292,0.0,0.0,94,0.00,CLR,,0.00,WeatherDisplay:10.37,2013-01-09 00:16:00,
2013-01-08 19:21:00,29.7,28.1,29.91,WNW,292,0.0,0.0,94,0.00,CLR,,0.00,WeatherDisplay:10.37,2013-01-09 00:21:00,
2013-01-08 19:26:00,29.7,28.1,29.91,WNW,292,0.0,0.0,94,0.00,CLR,,0.00,WeatherDisplay:10.37,2013-01-09 00:26:00,
2013-01-08 19:31:00,29.7,28.4,29.91,WNW,292,0.0,0.0,95,0.00,CLR,,0.00,WeatherDisplay:10.37,2013-01-09 00:31:00,
2013-01-08 19:36:00,29.5,28.0,29.91,WNW,292,0.0,0.0,94,0.00,CLR,,0.00,WeatherDisplay:10.37,2013-01-09 00:36:00,
2013-01-08 19:41:00,29.5,28.2,29.91,WNW,292,0.0,0.0,95,0.00,CLR,,0.00,WeatherDisplay:10.37,2013-01-09 00:41:00,
2013-01-08 19:46:00,29.3,28.3,29.91,WNW,292,0.0,0.0,96,0.00,CLR,,0.00,WeatherDisplay:10.37,2013-01-09 00:46:00,
2013-01-08 19:51:00,29.3,28.3,29.91,WNW,292,0.0,0.0,96,0.00,CLR,,0.00,WeatherDisplay:10.37,2013-01-09 00:51:00,
2013-01-08 19:56:00,29.3,28.6,29.91,WNW,292,0.0,0.0,97,0.00,CLR,,0.00,WeatherDisplay:10.37,2013-01-09 00:56:00,
2013-01-08 20:01:00,29.3,28.8,29.91,WNW,292,0.0,0.0,98,0.00,CLR,,0.00,WeatherDisplay:10.37,2013-01-09 01:01:00,
2013-01-08 20:06:00,29.1,28.6,29.91,WNW,292,0.0,0.0,98,0.00,CLR,,0.00,WeatherDisplay:10.37,2013-01-09 01:06:00,
2013-01-08 20:11:00,29.1,28.6,29.91,WNW,292,0.0,0.0,98,0.00,CLR,,0.00,WeatherDisplay:10.37,2013-01-09 01:11:00,
2013-01-08 20:16:00,29.3,29.3,29.91,WNW,292,0.0,0.0,100,0.00,,,0.00,WeatherDisplay:10.37,2013-01-09 01:16:00,
2013-01-08 20:21:00,29.1,29.1,29.91,WNW,292,0.0,0.0,100,0.00,,,0.00,WeatherDisplay:10.37,2013-01-09 01:21:00,
2013-01-08 20:26:00,29.1,29.1,29.91,WNW,292,0.0,0.0,100,0.00,,,0.00,WeatherDisplay:10.37,2013-01-09 01:26:00,
2013-01-08 20:31:00,29.1,29.1,29.91,WNW,292,0.0,0.0,100,0.00,,,0.00,WeatherDisplay:10.37,2013-01-09 01:31:00,
2013-01-08 20:36:00,29.1,29.1,29.91,WNW,292,0.0,0.0,100,0.00,,,0.00,WeatherDisplay:10.37,2013-01-09 01:36:00,
2013-01-08 20:41:00,28.9,28.9,29.91,WNW,292,0.0,0.0,100,0.00,,,0.00,WeatherDisplay:10.37,2013-01-09 01:41:00,
2013-01-08 20:46:00,28.9,28.9,29.91,WNW,292,0.0,0.0,100,0.00,,,0.00,WeatherDisplay:10.37,2013-01-09 01:46:00,
2013-01-08 20:51:00,28.8,28.8,29.91,WNW,292,0.0,0.0,100,0.00,,,0.00,WeatherDisplay:10.37,2013-01-09 01:51:00,
2013-01-08 20:56:00,28.4,28.4,29.91,WNW,292,0.0,0.0,100,0.00,,,0.00,WeatherDisplay:10.37,2013-01-09 01:56:00,
2013-01-08 21:01:00,28.4,28.4,29.91,WNW,292,0.0,0.0,100,0.00,,,0.00,WeatherDisplay:10.37,2013-01-09 02:01:00,
2013-01-08 21:06:00,28.4,28.4,29.91,WNW,292,0.0,0.0,100,0.00,,,0.00,WeatherDisplay:10.37,2013-01-09 02:06:00,
2013-01-08 21:11:00,28.2,28.2,29.91,WNW,292,0.0,0.0,100,0.00,,,0.00,WeatherDisplay:10.37,2013-01-09 02:11:00,
2013-01-08 21:16:00,28.0,28.0,29.91,WNW,292,0.0,0.0,100,0.00,,,0.00,WeatherDisplay:10.37,2013-01-09 02:16:00,
2013-01-08 21:21:00,27.9,27.9,29.91,WNW,292,0.0,0.0,100,0.00,,,0.00,WeatherDisplay:10.37,2013-01-09 02:21:00,
2013-01-08 21:26:00,27.7,27.7,29.91,WNW,292,0.0,0.0,100,0.00,,,0.00,WeatherDisplay:10.37,2013-01-09 02:26:00,
2013-01-08 21:31:00,27.7,27.7,29.91,WNW,292,0.0,0.0,100,0.00,,,0.00,WeatherDisplay:10.37,2013-01-09 02:31:00,
2013-01-08 21:36:00,27.5,27.5,29.91,WNW,292,0.0,0.0,100,0.00,,,0.00,WeatherDisplay:10.37,2013-01-09 02:36:00,
2013-01-08 21:41:00,27.5,27.5,29.91,WNW,292,0.0,0.0,100,0.00,,,0.00,WeatherDisplay:10.37,2013-01-09 02:41:00,
2013-01-08 21:46:00,27.3,27.3,29.91,WNW,292,0.0,0.0,100,0.00,,,0.00,WeatherDisplay:10.37,2013-01-09 02:46:00,
2013-01-08 21:51:00,27.3,27.3,29.91,WNW,292,0.0,0.0,100,0.00,,,0.00,WeatherDisplay:10.37,2013-01-09 02:51:00,
2013-01-08 21:56:00,27.3,27.3,29.91,WNW,292,0.0,0.0,100,0.00,,,0.00,WeatherDisplay:10.37,2013-01-09 02:56:00,
2013-01-08 22:01:00,27.0,27.0,29.91,WNW,292,0.0,0.0,100,0.00,,,0.00,WeatherDisplay:10.37,2013-01-09 03:01:00,
2013-01-08 22:06:00,26.8,26.8,29.91,WNW,292,0.0,0.0,100,0.00,,,0.00,WeatherDisplay:10.37,2013-01-09 03:06:00,
2013-01-08 22:12:00,26.8,26.8,29.91,WNW,292,0.0,0.0,100,0.00,,,0.00,WeatherDisplay:10.37,2013-01-09 03:12:00,
2013-01-08 22:17:00,26.6,26.6,29.91,WNW,292,0.0,0.0,100,0.00,,,0.00,WeatherDisplay:10.37,2013-01-09 03:17:00,
2013-01-08 22:22:00,26.6,26.6,29.91,WNW,292,0.0,0.0,100,0.00,,,0.00,WeatherDisplay:10.37,2013-01-09 03:22:00,
2013-01-08 22:27:00,26.6,26.6,29.91,WNW,292,0.0,0.0,100,0.00,,,0.00,WeatherDisplay:10.37,2013-01-09 03:27:00,
2013-01-08 22:32:00,26.6,26.6,29.91,WNW,292,0.0,0.0,100,0.00,,,0.00,WeatherDisplay:10.37,2013-01-09 03:32:00,
2013-01-08 22:37:00,26.6,26.6,29.91,WNW,292,0.0,0.0,100,0.00,,,0.00,WeatherDisplay:10.37,2013-01-09 03:37:00,
2013-01-08 22:42:00,26.8,26.8,29.91,WNW,292,0.0,0.0,100,0.00,,,0.00,WeatherDisplay:10.37,2013-01-09 03:42:00,
2013-01-08 22:47:00,26.6,26.6,29.91,WNW,292,0.0,0.0,100,0.00,,,0.00,WeatherDisplay:10.37,2013-01-09 03:47:00,
2013-01-08 22:52:00,26.6,26.6,29.91,WNW,292,0.0,0.0,100,0.00,,,0.00,WeatherDisplay:10.37,2013-01-09 03:52:00,
2013-01-08 22:57:00,26.6,26.6,29.91,WNW,292,0.0,0.0,100,0.00,,,0.00,WeatherDisplay:10.37,2013-01-09 03:57:00,
2013-01-08 23:02:00,26.6,26.6,29.91,WNW,292,0.0,0.0,100,0.00,,,0.00,WeatherDisplay:10.37,2013-01-09 04:02:00,
2013-01-08 23:07:00,26.8,26.8,29.91,WNW,292,0.0,0.0,100,0.00,,,0.00,WeatherDisplay:10.37,2013-01-09 04:07:00,
2013-01-08 23:12:00,26.8,26.8,29.91,WNW,292,0.0,0.0,100,0.00,,,0.00,WeatherDisplay:10.37,2013-01-09 04:12:00,
2013-01-08 23:17:00,27.0,27.0,29.91,WNW,292,0.0,0.0,100,0.00,,,0.00,WeatherDisplay:10.37,2013-01-09 04:17:00,
2013-01-08 23:22:00,27.0,27.0,29.91,WNW,292,0.0,0.0,100,0.00,,,0.00,WeatherDisplay:10.37,2013-01-09 04:22:00,
2013-01-08 23:27:00,26.8,26.8,29.91,WNW,292,0.0,0.0,100,0.00,,,0.00,WeatherDisplay:10.37,2013-01-09 04:27:00,
2013-01-08 23:32:00,26.6,26.6,29.91,WNW,292,0.0,0.0,100,0.00,,,0.00,WeatherDisplay:10.37,2013-01-09 04:32:00,
2013-01-08 23:37:00,26.4,26.4,29.91,WNW,292,0.0,0.0,100,0.00,,,0.00,WeatherDisplay:10.37,2013-01-09 04:37:00,
2013-01-08 23:42:00,26.4,26.4,29.91,WNW,292,0.0,0.0,100,0.00,,,0.00,WeatherDisplay:10.37,2013-01-09 04:42:00,
2013-01-08 23:47:00,26.4,26.4,29.91,WNW,292,0.0,0.0,100,0.00,,,0.00,WeatherDisplay:10.37,2013-01-09 04:47:00,
2013-01-08 23:52:00,26.2,26.2,29.91,WNW,292,0.0,0.0,100,0.00,,,0.00,WeatherDisplay:10.37,2013-01-09 04:52:00,
2013-01-08 23:57:00,26.1,26.1,29.91,WNW,292,0.0,0.0,100,0.00,,,0.00,WeatherDisplay:10.37,2013-01-09 04:57:00,